Wind_Speed
5 11 11 12 13 12 15 16 6 3 4 9 4 4 5 7 11 18 19 19 17 14 12 17 21 21 21 22 22 13 16 23 21 22 26 27 28 31 35 36 35 35 35 35
4 4 6 13 13 13 12 17 17 17 13 4 9 6 9 6 11 16 18 17 17 15 15 16 20 21 22 23 24 23 24 17 1 18 27 29 30 32 34 35 35 36 37 36
4 7 11 6 7 11 7 15 18 8 4 8 8 8 7 11 13 14 15 15 13 14 14 18 17 17 19 19 20 23 23 23 22 18 13 9 23 30 33 33 33 37 38 38
3 6 4 4 17 12 14 12 8 5 10 14 17 11 13 12 15 14 15 15 14 11 15 16 17 18 18 19 21 21 21 20 22 22 20 18 14 12 24 31 34 36 37 38
2 2 10 15 6 7 3 4 3 15 8 20 20 17 14 13 15 15 14 12 14 16 17 17 20 20 20 21 21 22 22 19 19 18 18 19 18 19 18 18 23 35 32 32
2 2 4 3 6 5 6 3 6 15 19 19 11 5 7 12 14 16 18 17 16 18 19 23 25 21 20 22 23 24 23 20 17 17 15 17 17 20 20 15 8 3 5 7
5 4 7 7 5 3 2 1 3 13 12 11 7 10 13 13 15 18 18 19 18 20 21 20 18 17 20 21 24 20 20 21 21 20 17 17 15 17 16 14 18 23 25 27
4 4 8 6 6 8 5 8 8 14 16 19 17 16 14 13 13 14 14 17 16 17 17 17 19 17 19 20 17 19 20 24 26 25 24 24 22 20 21 22 25 24 25 27
6 6 2 8 5 12 18 12 8 12 15 16 16 13 12 13 14 13 15 14 15 15 16 18 19 19 18 17 16 17 22 24 26 28 28 29 29 25 23 22 22 21 21 20
3 3 8 12 13 13 15 16 15 12 15 14 14 12 13 12 11 10 14 14 14 16 18 18 19 21 20 15 16 18 20 20 21 26 31 31 30 32 29 25 23 21 20 20
4 11 16 14 15 11 15 16 17 16 15 14 14 13 12 11 11 13 14 14 14 16 17 18 18 23 25 22 17 18 19 19 20 22 24 29 37 33 32 37 29 25 25 24
3 6 10 8 11 11 15 14 12 15 16 14 13 13 12 10 14 15 14 13 16 17 18 18 21 23 24 22 20 18 20 20 20 19 20 21 23 28 37 36 37 35 31 29
6 14 13 9 13 12 13 13 15 16 14 15 16 16 16 15 16 17 16 17 17 16 17 20 22 24 25 24 25 24 20 19 19 20 20 20 20 19 18 23 31 33 32 31
11 10 10 9 6 11 13 16 21 20 20 18 18 18 18 18 17 17 15 13 15 19 22 23 26 27 23 22 22 23 22 20 18 20 21 21 22 21 20 18 18 21 26 27
12 13 12 11 12 13 16 13 11 11 12 14 16 17 17 16 15 14 13 15 18 24 25 25 26 25 21 21 22 22 21 19 20 20 19 19 20 21 20 20 19 18 20 23
9 10 10 12 10 10 10 9 10 9 10 13 14 16 16 17 16 16 17 18 20 19 23 25 24 20 17 16 19 20 19 17 19 20 19 20 19 19 19 19 19 19 20 19
5 6 7 10 9 9 9 8 8 10 13 14 15 15 15 16 16 16 18 20 22 23 23 23 21 18 16 15 15 16 17 17 17 18 19 17 17 16 16 17 18 19 20 18
9 8 9 9 8 9 9 12 13 13 13 13 17 18 17 14 12 14 15 16 18 21 21 20 17 15 16 14 14 15 16 17 17 18 17 18 17 17 17 18 18 18 18 17
12 12 14 13 12 13 12 12 13 15 16 17 19 16 16 16 16 15 14 17 17 18 16 14 15 16 15 13 14 16 17 16 16 17 18 18 18 17 17 18 17 15 15 15
13 15 16 16 15 16 15 15 17 17 18 20 20 18 17 17 16 16 16 17 13 9 9 11 12 15 14 14 14 15 14 14 15 16 16 17 17 16 16 15 15 13 13 13
10 14 14 15 15 18 18 18 19 16 15 16 18 16 16 14 12 10 11 10 9 7 9 12 13 13 13 12 12 13 13 13 14 13 12 13 13 12 12 12 12 11 9 8
13 13 14 15 15 17 18 18 18 17 17 17 17 18 17 15 13 13 10 9 7 8 9 11 12 11 10 9 10 9 9 11 11 10 10 9 8 9 8 7 7 6 6 5
15 15 17 17 16 16 15 15 14 15 14 12 10 9 9 6 6 8 7 7 9 7 8 9 8 8 7 7 7 9 8 6 7 7 7 7 6 5 4 4 5 6 5 4
16 15 16 16 15 12 9 9 10 14 14 13 10 9 10 12 10 8 8 5 7 9 7 6 5 5 4 5 6 6 5 6 7 7 4 2 4 3 3 3 5 7 5 4
12 12 12 9 8 8 11 11 12 11 11 10 9 9 7 2 1 7 6 6 5 5 5 5 6 6 5 2 2 5 4 3 5 6 7 2 2 3 4 5 6 6 7 8
9 10 11 10 7 4 8 9 9 10 13 12 9 6 6 5 6 6 5 3 2 1 2 2 2 5 4 3 3 3 4 5 5 5 6 5 6 6 7 8 8 9 10 12
9 12 13 13 12 11 10 12 11 8 10 9 9 6 5 4 4 3 3 1 2 1 3 4 3 3 1 3 3 4 5 6 7 7 8 8 8 9 10 11 11 11 13 14
Wind_Direction
283 284 280 283 245 232 251 225 232 152 248 292 202 187 315 23 46 70 70 59 53 45 45 42 43 34 34 29 23 23 230 224 231 232 226 223 224 223 221 220 221 225 227 228
286 290 308 296 274 215 231 250 234 261 263 4 123 111 121 42 60 68 65 62 56 42 38 38 34 32 28 24 18 32 37 42 2 250 241 234 231 228 227 229 227 224 224 229
284 329 314 278 237 234 225 247 214 226 249 138 110 106 109 102 79 72 73 72 66 51 48 38 29 38 39 29 30 32 26 21 18 13 16 275 243 236 235 233 231 232 232 228
268 325 254 282 312 268 230 196 164 237 238 134 98 83 70 63 79 76 62 52 53 51 44 37 35 39 47 39 38 37 31 20 9 0 355 349 335 307 252 239 234 235 235 234
213 241 301 305 18 1 184 161 240 220 146 124 115 96 70 63 68 78 73 64 51 41 36 35 33 36 40 38 37 35 28 20 9 1 353 348 346 339 322 288 255 239 239 238
151 230 260 218 354 6 19 121 274 154 141 139 151 96 91 72 71 74 80 70 55 42 35 31 21 26 36 35 35 30 22 17 13 8 3 356 350 346 345 346 316 243 131 55
222 253 276 286 284 40 241 150 234 152 151 123 91 100 112 90 72 66 63 54 45 41 39 29 22 31 37 33 35 27 26 26 25 22 19 10 6 13 24 36 55 66 72 55
183 227 262 283 296 164 123 68 111 98 105 99 98 97 93 82 71 59 52 50 49 52 42 31 29 36 37 36 30 38 40 38 34 31 28 27 30 29 42 57 59 56 61 60
185 202 17 9 75 99 110 84 55 95 100 99 100 100 98 88 78 70 63 60 55 56 50 38 34 36 39 31 39 47 52 48 45 44 42 40 39 34 36 45 62 63 62 62
302 277 91 69 56 80 85 89 101 87 97 102 112 106 90 82 75 71 66 64 66 66 56 44 38 39 39 46 51 56 58 54 52 54 53 52 52 50 46 41 48 51 53 54
166 101 82 64 71 70 84 81 81 76 83 89 92 84 89 85 81 82 79 72 70 70 63 54 49 47 49 47 55 58 57 55 55 57 59 62 59 56 58 55 56 57 55 55
94 89 95 84 72 65 78 87 88 90 81 77 88 98 96 87 86 83 78 69 64 63 61 54 52 51 58 60 61 62 62 56 54 55 57 60 64 64 59 61 59 62 65 66
109 86 89 69 78 75 82 77 82 84 85 91 90 94 91 90 82 79 68 65 62 60 55 51 51 48 56 66 74 71 66 62 58 56 55 53 54 58 61 62 61 58 55 58
95 96 69 59 85 83 82 73 76 82 81 84 90 88 88 89 79 74 67 64 63 60 54 54 55 52 48 61 71 73 69 70 67 70 72 74 71 66 66 62 54 50 53 55
58 63 89 87 77 70 74 76 74 82 88 83 82 88 86 85 81 71 62 62 64 58 51 53 53 50 55 57 63 68 73 69 72 74 75 78 78 74 68 64 61 55 52 53
81 86 86 88 88 84 84 86 92 88 84 81 79 81 85 86 81 70 62 57 58 45 46 52 52 51 57 66 69 69 72 78 83 80 73 72 75 72 69 65 62 59 55 52
90 103 106 98 94 97 97 101 101 107 107 106 106 104 98 93 83 71 68 76 72 65 58 52 50 57 61 66 73 76 74 72 79 81 79 70 75 72 73 73 72 70 68 63
63 60 79 107 112 107 94 93 96 99 96 97 104 106 97 90 91 87 83 81 78 69 61 57 55 62 62 64 73 78 78 74 73 77 83 83 82 86 86 84 82 80 77 73
66 79 81 84 88 92 91 89 89 96 103 111 107 98 103 102 100 94 88 76 67 58 45 60 67 62 65 69 79 82 85 85 85 84 87 89 90 91 91 90 88 87 86 83
81 85 89 86 90 100 100 103 110 110 120 120 117 113 111 112 109 98 90 77 62 60 63 67 74 71 67 72 78 82 86 90 91 89 90 91 92 93 92 92 91 94 101 98
82 87 87 89 89 107 113 120 120 117 126 131 128 134 139 133 118 113 92 73 49 74 82 77 75 74 74 76 78 82 83 85 87 89 90 88 87 85 86 88 84 80 87 94
99 98 97 99 99 99 109 113 113 115 116 118 120 122 120 114 108 93 82 87 72 94 84 81 76 71 76 78 74 77 85 84 83 80 75 75 76 77 80 77 80 68 51 55
108 112 115 114 114 117 118 119 119 116 113 132 147 136 128 132 144 131 119 91 77 92 84 77 77 68 62 67 76 67 64 77 79 75 71 64 62 75 68 46 33 13 354 346
122 124 126 129 129 125 125 133 130 123 110 105 129 151 134 121 105 95 102 112 110 74 86 70 66 54 48 65 65 68 60 54 45 25 12 64 40 22 14 11 354 347 344 357
139 146 153 166 163 165 161 160 154 149 142 127 114 105 130 139 140 132 117 100 107 85 66 57 51 39 24 347 53 33 23 26 9 11 5 306 343 344 340 336 335 340 336 325
123 107 99 109 109 137 187 177 173 180 160 143 139 124 111 92 113 118 116 126 143 169 10 26 356 16 32 44 356 356 333 326 334 336 344 338 326 317 321 324 324 325 329 332
116 119 108 92 90 88 105 127 117 127 176 169 157 150 139 126 148 146 177 207 204 276 305 310 305 311 333 310 307 300 303 310 321 322 325 322 319 314 310 308 306 312 316 320
Height
724 718 715 707 705 708 711 708 709 698 700 694 700 702 702 698 692 685 690 696 703 708 708 707 706 707 706 706 708 708 708 711 714 716 717 719 722 723 722 723 726 730 732 734
727 713 712 708 700 697 708 704 706 703 699 701 697 700 702 701 698 696 696 704 711 721 718 717 716 714 713 712 712 709 710 711 712 713 713 714 715 715 716 719 720 720 721 724
740 722 717 711 695 688 695 690 694 699 695 700 701 699 703 705 704 708 714 722 728 730 730 728 727 723 721 721 718 714 714 712 711 711 710 710 710 709 709 711 714 713 713 714
742 732 722 690 684 676 676 681 690 695 695 694 703 709 712 713 712 719 721 725 731 736 735 733 731 728 724 724 723 721 720 718 715 713 711 709 706 704 703 704 704 704 703 705
743 738 713 690 681 681 679 694 693 693 690 701 707 714 723 725 725 727 731 737 739 738 736 733 730 727 727 726 726 725 724 724 721 717 713 709 706 703 700 697 695 694 696 698
745 738 724 689 682 677 680 695 693 686 695 698 698 717 732 733 735 737 742 743 742 740 737 732 731 731 730 729 728 727 728 727 724 720 716 712 708 703 699 696 691 687 689 692
739 740 719 692 683 681 695 701 689 685 689 695 706 717 736 740 742 743 743 741 743 742 740 741 739 736 733 732 731 734 732 729 725 722 718 715 712 708 702 697 695 691 689 695
740 739 731 690 683 691 701 701 699 698 704 712 722 732 740 745 747 746 746 748 749 748 748 747 743 740 738 735 738 736 735 732 728 725 722 717 715 713 708 703 701 701 700 699
721 716 707 698 692 693 695 710 712 709 713 720 731 740 746 748 752 754 755 754 754 752 753 752 748 745 743 743 741 739 737 735 734 730 726 723 719 718 716 713 710 710 710 708
710 699 706 709 711 710 710 714 721 722 723 732 741 746 747 749 752 756 758 759 760 759 757 757 755 751 750 749 747 744 742 741 739 736 733 730 728 726 726 724 721 721 721 720
710 716 718 723 726 724 722 724 730 734 735 738 741 747 751 754 759 763 764 766 766 764 762 761 759 755 754 753 751 749 747 747 745 742 740 739 737 736 736 737 735 732 731 731
711 724 720 729 733 735 732 733 736 739 744 748 750 756 760 763 766 768 770 771 768 767 765 764 761 760 758 756 754 753 751 752 752 750 749 746 745 745 745 745 745 743 741 739
723 730 733 739 740 743 744 743 744 745 752 755 762 762 764 768 771 773 773 772 771 770 768 766 765 763 763 760 758 757 757 757 757 756 755 753 753 752 753 754 752 752 752 750
735 735 740 742 746 749 750 750 753 755 758 762 766 769 770 773 775 778 779 779 776 773 771 769 768 767 768 765 764 762 762 762 762 762 762 762 761 761 759 759 761 760 760 759
744 742 745 749 752 754 755 759 763 764 766 770 773 774 776 778 782 784 784 782 779 776 775 774 773 773 773 772 770 769 768 769 768 768 769 768 767 766 766 764 764 766 765 764
750 754 757 758 762 763 765 769 771 773 773 775 778 781 783 785 787 788 787 785 782 783 783 781 780 781 779 778 777 776 776 776 774 774 774 773 772 771 771 771 771 770 769 770
755 759 761 763 765 767 771 774 775 776 778 781 784 787 788 790 791 791 791 791 790 789 789 788 787 786 785 784 783 783 782 781 779 777 777 778 778 777 778 777 776 776 776 775
766 765 766 768 772 775 778 780 781 783 785 787 789 792 793 794 795 796 796 796 794 793 793 793 793 792 790 789 788 786 786 786 785 783 782 781 782 783 783 782 781 781 781 781
774 774 776 777 779 780 783 785 787 788 790 792 794 796 798 799 800 801 801 800 799 799 800 799 797 795 794 794 792 790 790 791 791 789 788 788 787 788 787 787 786 786 785 786
782 782 783 784 786 787 790 792 793 794 796 797 799 800 802 804 805 805 805 804 805 804 804 802 800 799 799 798 796 795 795 796 795 795 794 793 793 792 791 791 791 790 790 790
787 788 789 791 792 794 795 796 797 799 801 802 803 805 807 808 809 809 808 807 807 806 806 805 803 802 801 800 800 799 800 800 799 799 798 797 796 796 795 795 794 794 794 793
792 794 795 796 798 799 801 801 802 803 805 806 808 808 809 810 810 809 809 809 809 808 807 806 805 804 804 803 803 803 803 803 802 801 800 799 798 798 797 797 797 796 795 794
797 798 799 801 802 804 805 806 807 807 808 808 809 810 810 810 810 810 810 811 810 809 808 808 807 807 806 806 806 806 805 805 804 803 802 801 800 799 799 798 797 796 795 794
799 801 802 803 805 806 807 808 809 809 809 810 810 810 810 810 811 811 810 810 811 811 810 810 809 809 809 808 808 807 807 806 805 804 803 802 801 800 799 798 797 796 794 793
801 802 803 804 805 806 807 808 809 810 810 810 811 811 811 811 811 811 812 812 812 812 811 811 811 810 809 808 808 808 807 806 805 804 803 801 800 799 798 797 795 794 793 791
802 802 803 804 805 805 805 807 807 809 810 810 811 811 811 812 812 812 812 812 812 812 812 811 811 811 810 809 809 808 807 805 804 803 801 800 799 797 796 795 793 792 790 789
803 804 805 806 806 806 806 807 807 809 810 810 811 812 812 812 812 812 812 812 812 812 811 811 810 810 809 808 807 806 805 803 801 800 799 797 796 795 793 792 790 789 787 786